Content
SEND FEEDBACK

Daily
Averages
Monthly
Summary
United States of America

TAMUNING, GUAM


Home > North America > United States > Guam
Elevation: 250 feet     Latitude: 13 29N     Longitude: 144 47E

WEATHER
 
SELECT A DAY
Number of Records: 351,678;   Date Range: 1/1/95 - 10/21/14
 
SHARE

PRINT THIS DATA

[ ← Previous Day ]
WEATHER ALMANAC - JANUARY 3, 2013
[ Next Day → ]
[ °C ]   °F
Weather ElementAverageHighLow
Temperature79.4 °F84.2 °F (1:00 pm)77 °F (12:33 am)
Dewpoint72.5 °F75.2 °F (12:33 am)65.3 °F (5:55 pm)
Humidity79.5 %94 % (12:33 am)62 % (5:55 pm)
Barometer29.84 in29.88 in (3:38 am)29.76 in (2:55 pm)
Wind Speed19.1 mph27.6 mph (8:28 am)
Wind Gust33.4 mph (8:28 am)
Weather ElementAverage
Visibility9.9 mi
Wind DirectionENE (69.6 °)

Weather ElementTotal
Precipitation0.02 in
Cooling Degree Days15.6 (Base 65)
Growing Degree Days30.6 (Base 50)
Averaged from 68 records on January 3, 2013
WEATHER CONDITIONS BREAKOUT
WIND DIRECTION BREAKOUT
WEATHER BY HOUR - JANUARY 3, 2013
[ °C ]   °F
Local TimeTemperatureDewpointHumidityBarometerVisibilityWind DirectionWind SpeedGust SpeedPrecipitationEventsConditions
12:33 AM77.0 °F75.2 °F94 %29.87 in7.0 miENE (70°)17.3 mphRainLight Rain
12:34 AM77.0 °F75.2 °F94 %29.87 in9.0 miENE (70°)17.3 mphMostly Cloudy
12:43 AM77.0 °F75.2 °F94 %29.86 in10.0 miENE (70°)18.4 mphMostly Cloudy
12:54 AM78.8 °F75.2 °F89 %29.86 in10.0 miEast (80°)23.0 mph28.8 mphMostly Cloudy
12:55 AM78.1 °F75.0 °F90 %29.86 in10.0 miEast (80°)24.2 mph28.8 mph0.02 inMostly Cloudy
1:01 AM78.8 °F75.2 °F89 %29.86 in10.0 miENE (70°)21.9 mph28.8 mphMostly Cloudy
1:07 AM78.8 °F75.2 °F89 %29.86 in10.0 miENE (70°)23.0 mphMostly Cloudy
1:08 AM78.8 °F75.2 °F89 %29.86 in10.0 miENE (70°)23.0 mphMostly Cloudy
1:10 AM78.8 °F75.2 °F89 %29.86 in10.0 miENE (70°)24.2 mph29.9 mphMostly Cloudy
1:19 AM78.8 °F75.2 °F89 %29.86 in10.0 miENE (70°)18.4 mphMostly Cloudy
1:45 AM78.8 °F73.4 °F83 %29.86 in10.0 miEast (80°)18.4 mph28.8 mphScattered Clouds
1:55 AM78.8 °F74.7 °F87 %29.85 in10.0 miENE (70°)20.7 mph26.5 mphScattered Clouds
2:43 AM78.8 °F73.4 °F83 %29.83 in10.0 miENE (70°)19.6 mph25.3 mphMostly Cloudy
2:51 AM78.8 °F73.4 °F83 %29.83 in10.0 miENE (70°)20.7 mph27.6 mphMostly Cloudy
2:55 AM78.8 °F73.8 °F84 %29.83 in10.0 miENE (70°)17.3 mph27.6 mphScattered Clouds
3:10 AM78.8 °F73.4 °F83 %29.83 in10.0 miENE (70°)18.4 mphMostly Cloudy
3:15 AM78.8 °F75.2 °F89 %29.83 in10.0 miENE (70°)16.1 mphScattered Clouds
3:38 AM78.8 °F73.4 °F83 %29.88 in10.0 miENE (70°)18.4 mphMostly Cloudy
3:55 AM79.0 °F73.9 °F84 %29.82 in10.0 miENE (70°)23.0 mph26.5 mphMostly Cloudy
4:04 AM78.8 °F73.4 °F83 %29.83 in10.0 miENE (70°)18.4 mphMostly Cloudy
4:55 AM78.8 °F73.0 °F82 %29.83 in10.0 miENE (70°)23.0 mph27.6 mphMostly Cloudy
4:58 AM78.8 °F73.4 °F83 %29.83 in10.0 miEast (80°)20.7 mph28.8 mphMostly Cloudy
4:59 AM78.8 °F73.4 °F83 %29.83 in10.0 miENE (70°)20.7 mph28.8 mphMostly Cloudy
5:00 AM78.8 °F73.4 °F83 %29.83 in10.0 miENE (70°)19.6 mph28.8 mphMostly Cloudy
5:55 AM78.8 °F71.1 °F77 %29.84 in10.0 miENE (70°)24.2 mph31.1 mphPartly Cloudy
6:34 AM78.8 °F73.4 °F83 %29.85 in10.0 miENE (70°)16.1 mph24.2 mphMostly Cloudy
6:55 AM79.2 °F73.0 °F81 %29.86 in10.0 miENE (70°)13.8 mphOvercast
7:18 AM78.8 °F73.4 °F83 %29.86 in10.0 miENE (60°)16.1 mph26.5 mphScattered Clouds
7:21 AM78.8 °F71.6 °F78 %29.86 in10.0 miENE (60°)17.3 mph26.5 mphMostly Cloudy
7:25 AM78.8 °F71.6 °F78 %29.86 in10.0 miENE (70°)18.4 mphScattered Clouds
7:55 AM79.7 °F72.3 °F78 %29.87 in10.0 miENE (70°)20.7 mph29.9 mphScattered Clouds
8:06 AM78.8 °F73.4 °F83 %29.87 in9.0 miENE (70°)18.4 mph26.5 mphMostly Cloudy
8:07 AM78.8 °F73.4 °F83 %29.88 in9.0 miENE (70°)20.7 mph26.5 mphRainLight Rain
8:16 AM78.8 °F73.4 °F83 %29.87 in9.0 miENE (60°)21.9 mph26.5 mphLight Drizzle
8:18 AM78.8 °F73.4 °F83 %29.88 in10.0 miENE (70°)21.9 mphScattered Clouds
8:28 AM78.8 °F73.4 °F83 %29.88 in8.0 miENE (60°)27.6 mph33.4 mphRainLight Rain
8:40 AM77.0 °F73.4 °F89 %29.88 in9.0 miENE (60°)18.4 mph29.9 mphMostly Cloudy
8:55 AM78.6 °F72.7 °F82 %29.88 in10.0 miENE (70°)23.0 mph28.8 mph0.00 inMostly Cloudy
9:55 AM80.8 °F72.1 °F75 %29.88 in10.0 miENE (60°)20.7 mph26.5 mphMostly Cloudy
10:55 AM82.4 °F73.6 °F75 %29.86 in10.0 miENE (60°)21.9 mph26.5 mphScattered Clouds
11:35 AM82.4 °F73.4 °F74 %29.85 in10.0 miENE (70°)17.3 mphMostly Cloudy
11:37 AM82.4 °F73.4 °F74 %29.85 in10.0 miEast (80°)20.7 mph25.3 mphScattered Clouds
11:38 AM82.4 °F73.4 °F74 %29.85 in10.0 miENE (70°)20.7 mph25.3 mphMostly Cloudy
11:55 AM83.1 °F73.9 °F74 %29.84 in10.0 miEast (80°)19.6 mphMostly Cloudy
12:18 PM82.4 °F73.4 °F74 %29.83 in10.0 miENE (60°)19.6 mph25.3 mphScattered Clouds
12:55 PM83.7 °F72.3 °F69 %29.81 in10.0 miENE (60°)21.9 mph26.5 mphScattered Clouds
1:00 PM84.2 °F71.6 °F66 %29.81 in10.0 miENE (60°)23.0 mph29.9 mphMostly Cloudy
1:11 PM82.4 °F71.6 °F70 %29.81 in10.0 miENE (60°)20.7 mph29.9 mphMostly Cloudy
1:55 PM83.3 °F71.6 °F68 %29.79 in10.0 miENE (60°)19.6 mph26.5 mphScattered Clouds
2:55 PM83.1 °F69.4 °F63 %29.76 in10.0 miEast (80°)20.7 mph27.6 mphPartly Cloudy
3:55 PM82.2 °F69.4 °F65 %29.76 in10.0 miENE (70°)17.3 mphScattered Clouds
4:55 PM80.2 °F67.1 °F64 %29.76 in10.0 miENE (60°)17.3 mphPartly Cloudy
5:55 PM79.3 °F65.3 °F62 %29.78 in10.0 miEast (80°)16.1 mph25.3 mphScattered Clouds
6:55 PM79.0 °F68.5 °F70 %29.78 in10.0 miEast (80°)20.7 mph25.3 mphPartly Cloudy
7:55 PM78.4 °F70.0 °F75 %29.80 in10.0 miENE (70°)19.6 mph24.2 mphPartly Cloudy
8:55 PM78.3 °F69.6 °F75 %29.81 in10.0 miENE (70°)17.3 mphPartly Cloudy
9:27 PM78.8 °F69.8 °F74 %29.82 in10.0 miENE (70°)17.3 mphMostly Cloudy
9:38 PM78.8 °F69.8 °F74 %29.82 in10.0 miENE (70°)16.1 mphScattered Clouds
9:55 PM78.6 °F70.7 °F77 %29.82 in10.0 miENE (70°)17.3 mphScattered Clouds
10:49 PM78.8 °F71.6 °F78 %29.81 in10.0 miENE (60°)12.7 mphMostly Cloudy
10:52 PM78.8 °F71.6 °F78 %29.81 in10.0 miENE (70°)15.0 mphScattered Clouds
10:55 PM78.1 °F70.9 °F78 %29.81 in10.0 miENE (70°)12.7 mphMostly Cloudy
10:57 PM78.8 °F71.6 °F78 %29.81 in10.0 miENE (60°)15.0 mphScattered Clouds
11:28 PM78.8 °F71.6 °F78 %29.80 in10.0 miENE (70°)15.0 mphMostly Cloudy
11:31 PM78.8 °F69.8 °F74 %29.80 in10.0 miENE (70°)16.1 mphMostly Cloudy
11:44 PM78.8 °F69.8 °F74 %29.80 in10.0 miEast (80°)13.8 mphMostly Cloudy
11:45 PM78.8 °F71.6 °F78 %29.80 in10.0 miEast (80°)13.8 mphScattered Clouds
11:55 PM77.9 °F70.7 °F78 %29.80 in10.0 miEast (80°)13.8 mphPartly Cloudy
Hourly data recorded from PGUA, located miles away from Tamuning, Guam







STORIES FROM OUR PARTNERS